Location: Westerlo
(51.0830°N, 4.9170°E)
Time: 11:08:36
(UTC+02:00)

ISS - Visible Passes

Search period start: 12 May 2025 00:00
Search period end: 22 May 2025 00:00
Orbit: 416 x 420 km, 51.6° (Epoch: 12 May)

Date Brightness Start Highest point End Pass type
(mag) Time Alt. Az. Time Alt. Az. Time Alt. Az.
12 May -3.0 01:25:45 10° W 01:28:09 44° WNW 01:28:09 44° WNW visible
12 May -3.9 23:01:01 10° WSW 23:04:22 74° SSE 23:07:44 10° E visible
13 May -3.8 00:37:50 10° W 00:41:12 80° N 00:42:03 47° E visible
13 May -1.2 02:14:39 10° W 02:14:58 12° W 02:14:58 12° W visible
13 May -3.7 22:13:11 10° WSW 22:16:29 58° SSE 22:19:49 10° E visible
13 May -3.7 23:49:53 10° W 23:53:15 79° N 23:55:47 17° E visible
14 May -2.5 01:26:43 10° W 01:28:41 32° W 01:28:41 32° W visible
14 May -3.7 23:01:55 10° W 23:05:18 83° N 23:08:39 10° E visible
15 May -3.9 00:38:45 10° W 00:42:08 82° SSW 00:42:21 75° SE visible
15 May -3.8 22:13:57 10° WSW 22:17:20 87° SSE 22:20:42 10° E visible
15 May -3.8 23:50:47 10° W 23:54:10 86° NNE 23:55:58 25° E visible
16 May -1.8 01:27:39 10° W 01:28:53 19° W 01:28:53 19° W visible
16 May -3.7 23:02:48 10° W 23:06:10 80° N 23:09:32 10° E visible
17 May -3.4 00:39:37 10° W 00:42:29 47° SW 00:42:29 47° SW visible
17 May -3.6 22:14:47 10° W 22:18:09 79° N 22:21:32 10° E visible
17 May -3.8 23:51:36 10° W 23:54:57 68° SSW 23:56:04 38° SE visible
18 May -1.1 01:28:48 10° W 01:28:58 11° W 01:28:58 11° W visible
18 May -3.8 23:03:35 10° W 23:06:57 83° SSW 23:09:38 15° ESE visible
19 May -2.2 00:40:33 10° W 00:42:33 24° WSW 00:42:33 24° WSW visible
19 May -3.7 22:15:32 10° W 22:18:55 85° NNE 22:22:17 10° E visible
19 May -3.2 23:52:23 10° W 23:55:33 39° SSW 23:56:07 35° S visible
20 May -3.5 23:04:17 10° W 23:07:35 53° SSW 23:09:42 19° SE visible
21 May -1.3 00:41:58 10° WSW 00:42:36 12° WSW 00:42:36 12° WSW visible
21 May -3.7 22:16:12 10° W 22:19:33 69° SSW 22:22:54 10° ESE visible
21 May -2.1 23:53:22 10° W 23:55:56 20° SW 23:56:12 20° SSW visible
